TimeMDT,TemperatureF,Dew PointF,Humidity,Sea Level PressureIn,VisibilityMPH,Wind Direction,Wind SpeedMPH,Gust SpeedMPH,PrecipitationIn,Events,Conditions,WindDirDegrees,DateUTC
12:15 AM,62.6,50.0,63,30.31,10.0,Calm,Calm,-,N/A,,Clear,0,2013-06-28 06:15:00
12:35 AM,62.6,50.0,63,30.31,10.0,Calm,Calm,-,N/A,,Clear,0,2013-06-28 06:35:00
12:55 AM,62.6,48.2,59,30.31,10.0,East,3.5,-,N/A,,Clear,100,2013-06-28 06:55:00
1:15 AM,60.8,50.0,68,30.31,10.0,Calm,Calm,-,N/A,,Clear,0,2013-06-28 07:15:00
1:35 AM,59.0,50.0,72,30.31,10.0,SE,3.5,-,N/A,,Clear,130,2013-06-28 07:35:00
1:55 AM,59.0,50.0,72,30.31,10.0,Calm,Calm,-,N/A,,Clear,0,2013-06-28 07:55:00
2:15 AM,59.0,50.0,72,30.31,10.0,Calm,Calm,-,N/A,,Clear,0,2013-06-28 08:15:00
2:35 AM,59.0,46.4,63,30.31,10.0,Calm,Calm,-,N/A,,Clear,0,2013-06-28 08:35:00
2:55 AM,55.4,48.2,77,30.31,10.0,Calm,Calm,-,N/A,,Clear,0,2013-06-28 08:55:00
3:15 AM,55.4,46.4,72,30.32,10.0,Calm,Calm,-,N/A,,Clear,0,2013-06-28 09:15:00
3:35 AM,55.4,48.2,77,30.32,10.0,Calm,Calm,-,N/A,,Clear,0,2013-06-28 09:35:00
3:55 AM,59.0,46.4,63,30.32,10.0,Calm,Calm,-,N/A,,Clear,0,2013-06-28 09:55:00
4:15 AM,59.0,48.2,67,30.32,10.0,Calm,Calm,-,N/A,,Clear,0,2013-06-28 10:15:00
4:35 AM,55.4,48.2,77,30.32,10.0,Calm,Calm,-,N/A,,Clear,0,2013-06-28 10:35:00
4:55 AM,53.6,48.2,82,30.32,10.0,Calm,Calm,-,N/A,,Clear,0,2013-06-28 10:55:00
5:15 AM,55.4,46.4,72,30.32,10.0,SSE,4.6,-,N/A,,Clear,150,2013-06-28 11:15:00
5:35 AM,55.4,46.4,72,30.33,10.0,East,3.5,-,N/A,,Clear,90,2013-06-28 11:35:00
5:55 AM,55.4,46.4,72,30.34,10.0,Calm,Calm,-,N/A,,Clear,0,2013-06-28 11:55:00
6:55 AM,59.0,46.4,63,30.36,10.0,Calm,Calm,-,N/A,,Clear,0,2013-06-28 12:55:00
7:15 AM,55.4,46.4,72,30.36,10.0,Calm,Calm,-,N/A,,Clear,0,2013-06-28 13:15:00
7:35 AM,57.2,48.2,72,30.36,10.0,East,4.6,-,N/A,,Clear,100,2013-06-28 13:35:00
7:55 AM,64.4,46.4,52,30.37,10.0,Calm,Calm,-,N/A,,Clear,0,2013-06-28 13:55:00
8:15 AM,68.0,44.6,43,30.37,10.0,Calm,Calm,-,N/A,,Clear,0,2013-06-28 14:15:00
8:35 AM,68.0,42.8,40,30.37,10.0,Calm,Calm,-,N/A,,Clear,0,2013-06-28 14:35:00
8:55 AM,69.8,44.6,40,30.37,10.0,NW,3.5,-,N/A,,Clear,310,2013-06-28 14:55:00
9:15 AM,69.8,44.6,40,30.37,10.0,Calm,Calm,-,N/A,,Clear,0,2013-06-28 15:15:00
9:35 AM,71.6,44.6,38,30.37,10.0,NW,3.5,-,N/A,,Clear,310,2013-06-28 15:35:00
9:55 AM,73.4,46.4,38,30.36,10.0,Calm,Calm,-,N/A,,Clear,0,2013-06-28 15:55:00
10:15 AM,77.0,42.8,29,30.36,10.0,Calm,Calm,-,N/A,,Clear,0,2013-06-28 16:15:00
10:35 AM,78.8,42.8,28,30.36,10.0,Calm,Calm,-,N/A,,Clear,0,2013-06-28 16:35:00
10:55 AM,80.6,41.0,24,30.34,10.0,Calm,Calm,-,N/A,,Clear,0,2013-06-28 16:55:00
11:15 AM,82.4,41.0,23,30.34,10.0,Calm,Calm,-,N/A,,Clear,0,2013-06-28 17:15:00
11:35 AM,84.2,42.8,23,30.34,10.0,Calm,Calm,-,N/A,,Clear,0,2013-06-28 17:35:00
11:55 AM,86.0,41.0,20,30.33,10.0,Calm,Calm,-,N/A,,Clear,0,2013-06-28 17:55:00
12:15 PM,87.8,41.0,19,30.32,10.0,Calm,Calm,-,N/A,,Clear,0,2013-06-28 18:15:00
12:35 PM,89.6,42.8,20,30.31,10.0,WNW,4.6,-,N/A,,Clear,300,2013-06-28 18:35:00
12:55 PM,89.6,42.8,20,30.30,10.0,Calm,Calm,-,N/A,,Clear,0,2013-06-28 18:55:00
1:15 PM,93.2,39.2,15,30.29,10.0,Calm,Calm,-,N/A,,Clear,0,2013-06-28 19:15:00
1:35 PM,95.0,37.4,13,30.28,10.0,NW,4.6,-,N/A,,Clear,320,2013-06-28 19:35:00
1:55 PM,96.8,35.6,12,30.27,10.0,North,9.2,-,N/A,,Clear,350,2013-06-28 19:55:00
2:15 PM,98.6,33.8,10,30.26,10.0,North,8.1,-,N/A,,Clear,350,2013-06-28 20:15:00
2:35 PM,98.6,32.0,10,30.26,10.0,NNW,5.8,17.3,N/A,,Clear,340,2013-06-28 20:35:00
2:55 PM,100.4,32.0,9,30.25,10.0,NNE,8.1,-,N/A,,Clear,20,2013-06-28 20:55:00
3:15 PM,98.6,30.2,9,30.25,10.0,NNE,6.9,18.4,N/A,,Clear,20,2013-06-28 21:15:00
3:35 PM,96.8,32.0,10,30.25,10.0,North,10.4,-,N/A,,Clear,350,2013-06-28 21:35:00
3:55 PM,95.0,35.6,12,30.24,10.0,NNW,10.4,-,N/A,,Clear,340,2013-06-28 21:55:00
4:15 PM,95.0,35.6,12,30.23,10.0,NNW,5.8,-,N/A,,Clear,340,2013-06-28 22:15:00
4:35 PM,95.0,37.4,13,30.23,10.0,NNW,5.8,-,N/A,,Clear,330,2013-06-28 22:35:00
4:55 PM,96.8,37.4,13,30.23,10.0,NW,6.9,-,N/A,,Clear,320,2013-06-28 22:55:00
5:15 PM,91.4,37.4,15,30.22,10.0,WNW,4.6,-,N/A,,Clear,300,2013-06-28 23:15:00
5:35 PM,91.4,35.6,14,30.22,10.0,East,12.7,16.1,N/A,,Clear,90,2013-06-28 23:35:00
5:55 PM,89.6,33.8,14,30.21,10.0,SSE,8.1,23.0,N/A,,Clear,160,2013-06-28 23:55:00
6:15 PM,91.4,37.4,15,30.20,10.0,ESE,8.1,-,N/A,,Clear,120,2013-06-29 00:15:00
6:35 PM,95.0,37.4,13,30.20,10.0,ESE,6.9,-,N/A,,Clear,110,2013-06-29 00:35:00
6:55 PM,95.0,33.8,12,30.20,10.0,NNW,3.5,-,N/A,,Clear,330,2013-06-29 00:55:00
7:15 PM,91.4,41.0,17,30.20,10.0,NNW,3.5,-,N/A,,Clear,340,2013-06-29 01:15:00
7:35 PM,87.8,44.6,22,30.20,10.0,North,4.6,-,N/A,,Clear,350,2013-06-29 01:35:00
7:55 PM,86.0,46.4,25,30.21,10.0,Calm,Calm,-,N/A,,Clear,0,2013-06-29 01:55:00
8:15 PM,82.4,46.4,28,30.21,10.0,Calm,Calm,-,N/A,,Clear,0,2013-06-29 02:15:00
8:35 PM,80.6,46.4,30,30.22,10.0,ESE,3.5,-,N/A,,Clear,120,2013-06-29 02:35:00
8:55 PM,77.0,50.0,39,30.22,10.0,Calm,Calm,-,N/A,,Clear,0,2013-06-29 02:55:00
9:15 PM,77.0,42.8,29,30.22,10.0,NNE,4.6,-,N/A,,Clear,30,2013-06-29 03:15:00
9:35 PM,73.4,44.6,36,30.23,7.0,Calm,Calm,-,N/A,,Clear,0,2013-06-29 03:35:00
9:55 PM,75.2,44.6,34,30.24,10.0,West,3.5,-,N/A,,Clear,260,2013-06-29 03:55:00
10:15 PM,69.8,50.0,49,30.24,10.0,Calm,Calm,-,N/A,,Clear,0,2013-06-29 04:15:00
10:35 PM,71.6,46.4,41,30.24,10.0,Calm,Calm,-,N/A,,Clear,0,2013-06-29 04:35:00
10:55 PM,69.8,46.4,43,30.25,10.0,Calm,Calm,-,N/A,,Clear,0,2013-06-29 04:55:00
11:15 PM,66.2,48.2,52,30.24,10.0,SSE,3.5,-,N/A,,Clear,160,2013-06-29 05:15:00
11:35 PM,64.4,50.0,59,30.25,10.0,SE,4.6,-,N/A,,Clear,140,2013-06-29 05:35:00
11:55 PM,64.4,50.0,59,30.24,10.0,SSE,3.5,-,N/A,,Clear,150,2013-06-29 05:55:00